| time (UTC) | temp F | wind direction | speed knots | gust knots | rain 1hr in | rain 24hr in | rain mn in | humidity % | barometer mb |
| 20260507135051 | 50 | 41 | 3.5 | 8.7 | 0.00 | 0.00 | 0.00 | 73 | 1019.8 |
| 20260507134555 | 50 | 50 | 3.5 | 7.8 | 0.00 | 0.00 | 0.00 | 73 | 1019.8 |
| 20260507134048 | 51 | 32 | 3.5 | 7.8 | 0.00 | 0.00 | 0.00 | 73 | 1019.7 |
| 20260507133549 | 51 | 54 | 3.5 | 7.8 | 0.00 | 0.00 | 0.00 | 73 | 1019.7 |
| 20260507133059 | 51 | 55 | 2.6 | 6.1 | 0.00 | 0.00 | 0.00 | 74 | 1019.7 |
| 20260507132551 | 51 | 55 | 2.6 | 5.2 | 0.00 | 0.00 | 0.00 | 74 | 1019.7 |
| 20260507132051 | 51 | 59 | 1.7 | 4.3 | 0.00 | 0.00 | 0.00 | 74 | 1019.8 |
| 20260507131617 | 51 | 78 | 0.9 | 7.0 | 0.00 | 0.00 | 0.00 | 73 | 1019.8 |
| 20260507131053 | 51 | 59 | 1.7 | 7.0 | 0.00 | 0.00 | 0.00 | 73 | 1019.8 |
| 20260507130551 | 51 | 0 | 0.9 | 4.3 | 0.00 | 0.00 | 0.00 | 73 | 1019.8 |
| 20260507130055 | 51 | 55 | 1.7 | 4.3 | 0.00 | 0.00 | 0.00 | 73 | 1019.7 |
| 20260507125551 | 51 | 59 | 1.7 | 5.2 | 0.00 | 0.00 | 0.00 | 73 | 1019.7 |
| 20260507125052 | 51 | 63 | 2.6 | 5.2 | 0.00 | 0.00 | 0.00 | 73 | 1019.8 |
| 20260507124601 | 51 | 55 | 0.0 | 4.3 | 0.00 | 0.00 | 0.00 | 73 | 1019.8 |
| 20260507124052 | 51 | 51 | 1.7 | 4.3 | 0.00 | 0.00 | 0.00 | 73 | 1019.9 |
| 20260507123552 | 51 | 61 | 0.9 | 3.5 | 0.00 | 0.00 | 0.00 | 73 | 1019.9 |
| 20260507123102 | 51 | 0 | 0.0 | 3.5 | 0.00 | 0.00 | 0.00 | 73 | 1019.9 |
| 20260507122550 | 51 | 62 | 0.0 | 3.5 | 0.00 | 0.00 | 0.00 | 73 | 1019.8 |
| 20260507122057 | 51 | 0 | 0.9 | 3.5 | 0.00 | 0.00 | 0.00 | 73 | 1019.9 |
| 20260507121558 | 51 | 32 | 0.9 | 3.5 | 0.00 | 0.00 | 0.00 | 73 | 1020.0 |
| 20260507121049 | 51 | 0 | 0.0 | 0.0 | 0.00 | 0.00 | 0.00 | 73 | 1020.0 |
| 20260507120549 | 51 | 0 | 0.0 | 0.0 | 0.00 | 0.00 | 0.00 | 73 | 1020.0 |
| 20260507120054 | 51 | 0 | 0.0 | 2.6 | 0.00 | 0.00 | 0.00 | 73 | 1020.0 |
| 20260507115552 | 51 | 0 | 0.0 | 2.6 | 0.00 | 0.00 | 0.00 | 73 | 1020.1 |
| 20260507115051 | 51 | 0 | 0.9 | 2.6 | 0.00 | 0.00 | 0.00 | 73 | 1020.1 |
| 20260507114553 | 52 | 0 | 0.0 | 0.0 | 0.00 | 0.00 | 0.00 | 73 | 1020.1 |
| 20260507114052 | 52 | 0 | 0.0 | 4.3 | 0.00 | 0.00 | 0.00 | 73 | 1020.2 |
| 20260507113552 | 52 | 0 | 0.0 | 4.3 | 0.00 | 0.00 | 0.00 | 73 | 1020.2 |
| 20260507113125 | 52 | 32 | 1.7 | 4.3 | 0.00 | 0.00 | 0.00 | 73 | 1020.2 |
| 20260507112551 | 52 | 31 | 1.7 | 6.1 | 0.00 | 0.00 | 0.00 | 73 | 1020.2 |
| 20260507112054 | 52 | 31 | 1.7 | 6.1 | 0.00 | 0.00 | 0.00 | 73 | 1020.2 |
| 20260507111552 | 52 | 0 | 0.9 | 4.3 | 0.00 | 0.00 | 0.00 | 73 | 1020.2 |
| 20260507111051 | 52 | 0 | 1.7 | 5.2 | 0.00 | 0.00 | 0.00 | 73 | 1020.2 |
| 20260507110552 | 52 | 35 | 2.6 | 5.2 | 0.00 | 0.00 | 0.00 | 73 | 1020.2 |
| 20260507110057 | 52 | 31 | 1.7 | 4.3 | 0.00 | 0.00 | 0.00 | 73 | 1020.4 |
| 20260507105549 | 52 | 39 | 0.9 | 4.3 | 0.00 | 0.00 | 0.00 | 73 | 1020.3 |
| 20260507105051 | 52 | 0 | 2.6 | 4.3 | 0.00 | 0.00 | 0.00 | 73 | 1020.3 |
| 20260507104602 | 52 | 42 | 1.7 | 4.3 | 0.00 | 0.00 | 0.00 | 73 | 1020.3 |
| 20260507104052 | 52 | 0 | 1.7 | 4.3 | 0.00 | 0.00 | 0.00 | 73 | 1020.4 |
| 20260507103551 | 52 | 21 | 2.6 | 6.1 | 0.00 | 0.00 | 0.00 | 73 | 1020.4 |
| 20260507103053 | 52 | 25 | 2.6 | 6.1 | 0.00 | 0.00 | 0.00 | 73 | 1020.4 |
| 20260507102551 | 52 | 51 | 0.0 | 5.2 | 0.00 | 0.00 | 0.00 | 73 | 1020.4 |
| 20260507102048 | 52 | 0 | 2.6 | 5.2 | 0.00 | 0.00 | 0.00 | 73 | 1020.5 |
| 20260507101556 | 52 | 0 | 0.0 | 4.3 | 0.00 | 0.00 | 0.00 | 73 | 1020.5 |
| 20260507101050 | 52 | 12 | 1.7 | 4.3 | 0.00 | 0.00 | 0.00 | 73 | 1020.6 |
| 20260507100548 | 52 | 44 | 1.7 | 5.2 | 0.00 | 0.00 | 0.00 | 73 | 1020.5 |
| 20260507100058 | 52 | 34 | 2.6 | 5.2 | 0.00 | 0.00 | 0.00 | 73 | 1020.6 |
| 20260507095551 | 52 | 63 | 1.7 | 5.2 | 0.00 | 0.00 | 0.00 | 73 | 1020.6 |
| 20260507095050 | 52 | 50 | 1.7 | 5.2 | 0.00 | 0.00 | 0.00 | 73 | 1020.6 |
| 20260507094606 | 52 | 38 | 0.9 | 4.3 | 0.00 | 0.00 | 0.00 | 73 | 1020.6 |
| 20260507094053 | 52 | 26 | 1.7 | 5.2 | 0.00 | 0.00 | 0.00 | 73 | 1020.6 |
| 20260507093551 | 52 | 50 | 2.6 | 5.2 | 0.00 | 0.00 | 0.00 | 73 | 1020.6 |
| 20260507093056 | 52 | 32 | 0.9 | 7.0 | 0.00 | 0.00 | 0.00 | 73 | 1020.7 |
| 20260507092552 | 52 | 0 | 2.6 | 7.0 | 0.00 | 0.00 | 0.00 | 73 | 1020.7 |
| 20260507092051 | 52 | 0 | 1.7 | 7.0 | 0.00 | 0.00 | 0.00 | 73 | 1020.8 |
| 20260507091556 | 53 | 27 | 2.6 | 7.0 | 0.00 | 0.00 | 0.00 | 73 | 1020.8 |
| 20260507091049 | 53 | 43 | 0.9 | 7.0 | 0.00 | 0.00 | 0.00 | 73 | 1020.8 |
| 20260507090546 | 53 | 0 | 0.0 | 0.0 | 0.00 | 0.00 | 0.00 | 73 | 1020.9 |
| 20260507090056 | 53 | 0 | 0.0 | 0.0 | 0.00 | 0.00 | 0.00 | 73 | 1020.9 |
| 20260507085548 | 53 | 0 | 0.0 | 0.0 | 0.00 | 0.00 | 0.00 | 73 | 1020.9 |
| 20260507085049 | 53 | 0 | 0.0 | 4.3 | 0.00 | 0.00 | 0.00 | 73 | 1020.9 |
| 20260507084601 | 53 | 0 | 0.0 | 7.0 | 0.00 | 0.00 | 0.00 | 73 | 1020.9 |
| 20260507084048 | 53 | 0 | 0.9 | 7.0 | 0.00 | 0.00 | 0.00 | 73 | 1020.9 |
| 20260507083551 | 53 | 25 | 2.6 | 7.0 | 0.00 | 0.00 | 0.00 | 73 | 1020.9 |
| 20260507083053 | 53 | 65 | 2.6 | 7.0 | 0.00 | 0.00 | 0.00 | 73 | 1020.9 |
| 20260507082547 | 53 | 30 | 3.5 | 7.0 | 0.00 | 0.00 | 0.00 | 73 | 1020.9 |
| 20260507082049 | 53 | 55 | 0.9 | 7.0 | 0.00 | 0.00 | 0.00 | 73 | 1020.8 |
| 20260507081556 | 53 | 0 | 0.9 | 7.0 | 0.00 | 0.00 | 0.00 | 73 | 1020.9 |
| 20260507081047 | 53 | 49 | 3.5 | 7.0 | 0.00 | 0.00 | 0.00 | 73 | 1020.8 |
| 20260507080549 | 53 | 26 | 3.5 | 7.0 | 0.00 | 0.00 | 0.00 | 73 | 1020.9 |
| 20260507075553 | 53 | 26 | 4.3 | 7.8 | 0.00 | 0.00 | 0.00 | 73 | 1020.8 |
| 20260507075049 | 53 | 51 | 2.6 | 7.0 | 0.00 | 0.00 | 0.00 | 73 | 1020.9 |
| 20260507074552 | 53 | 71 | 3.5 | 7.0 | 0.00 | 0.00 | 0.00 | 73 | 1020.8 |
| 20260507074046 | 53 | 45 | 0.9 | 6.1 | 0.00 | 0.00 | 0.00 | 73 | 1020.8 |
| 20260507073549 | 53 | 0 | 2.6 | 7.8 | 0.00 | 0.00 | 0.00 | 73 | 1020.8 |
| 20260507073057 | 53 | 37 | 3.5 | 7.8 | 0.00 | 0.00 | 0.00 | 73 | 1020.8 |
| 20260507072547 | 53 | 34 | 3.5 | 9.6 | 0.00 | 0.00 | 0.00 | 73 | 1020.8 |
| 20260507072049 | 53 | 46 | 4.3 | 9.6 | 0.00 | 0.00 | 0.00 | 73 | 1020.8 |
| 20260507071553 | 53 | 51 | 3.5 | 7.8 | 0.00 | 0.00 | 0.00 | 73 | 1020.7 |
| 20260507071049 | 53 | 66 | 3.5 | 7.8 | 0.00 | 0.00 | 0.00 | 73 | 1020.8 |
| 20260507070549 | 53 | 36 | 3.5 | 7.8 | 0.00 | 0.00 | 0.00 | 73 | 1020.8 |
| 20260507070107 | 54 | 37 | 3.5 | 7.8 | 0.00 | 0.00 | 0.00 | 73 | 1020.8 |
| 20260507065548 | 54 | 41 | 3.5 | 8.7 | 0.00 | 0.00 | 0.00 | 73 | 1020.8 |
| 20260507065049 | 54 | 360 | 3.5 | 8.7 | 0.00 | 0.00 | 0.00 | 73 | 1020.9 |
| 20260507064605 | 54 | 13 | 3.5 | 8.7 | 0.00 | 0.00 | 0.00 | 73 | 1020.8 |
| 20260507064050 | 54 | 53 | 4.3 | 8.7 | 0.00 | 0.00 | 0.00 | 73 | 1020.9 |
| 20260507063551 | 54 | 48 | 4.3 | 8.7 | 0.00 | 0.00 | 0.00 | 73 | 1020.9 |
| 20260507063058 | 54 | 17 | 5.2 | 8.7 | 0.00 | 0.00 | 0.00 | 73 | 1020.9 |
| 20260507062550 | 54 | 34 | 4.3 | 8.7 | 0.00 | 0.00 | 0.00 | 73 | 1020.9 |
| 20260507062050 | 54 | 26 | 3.5 | 10.4 | 0.00 | 0.00 | 0.00 | 73 | 1020.9 |
| 20260507061557 | 54 | 26 | 4.3 | 10.4 | 0.00 | 0.00 | 0.00 | 73 | 1020.8 |
| 20260507061049 | 54 | 30 | 5.2 | 10.4 | 0.00 | 0.00 | 0.00 | 73 | 1020.9 |
| 20260507060551 | 54 | 20 | 4.3 | 9.6 | 0.00 | 0.00 | 0.00 | 73 | 1020.9 |
| 20260507055549 | 55 | 42 | 2.6 | 8.7 | 0.00 | 0.00 | 0.00 | 73 | 1020.7 |
| 20260507055050 | 55 | 41 | 3.5 | 12.2 | 0.00 | 0.00 | 0.00 | 73 | 1020.8 |
| 20260507054558 | 55 | 30 | 6.1 | 12.2 | 0.00 | 0.00 | 0.00 | 73 | 1020.8 |
| 20260507054053 | 55 | 49 | 5.2 | 11.3 | 0.00 | 0.00 | 0.00 | 73 | 1020.7 |
| 20260507053551 | 55 | 67 | 5.2 | 11.3 | 0.00 | 0.00 | 0.00 | 73 | 1020.8 |
| 20260507053057 | 55 | 30 | 5.2 | 8.7 | 0.00 | 0.00 | 0.00 | 73 | 1020.8 |
| 20260507052549 | 55 | 53 | 2.6 | 7.8 | 0.00 | 0.00 | 0.00 | 73 | 1020.8 |
| 20260507052049 | 55 | 38 | 2.6 | 9.6 | 0.00 | 0.00 | 0.00 | 73 | 1020.7 |
| 20260507051600 | 55 | 352 | 3.5 | 12.2 | 0.00 | 0.00 | 0.00 | 73 | 1020.7 |
| 20260507051046 | 56 | 5 | 6.1 | 13.9 | 0.00 | 0.00 | 0.00 | 73 | 1020.7 |
| 20260507050553 | 56 | 20 | 5.2 | 13.9 | 0.00 | 0.00 | 0.00 | 73 | 1020.7 |
| 20260507050109 | 56 | 13 | 7.8 | 12.2 | 0.00 | 0.00 | 0.00 | 73 | 1020.7 |
| 20260507045548 | 56 | 19 | 7.0 | 12.2 | 0.00 | 0.00 | 0.00 | 72 | 1020.6 |
| 20260507045047 | 56 | 19 | 7.8 | 12.2 | 0.00 | 0.00 | 0.00 | 72 | 1020.6 |
| 20260507044557 | 56 | 11 | 7.8 | 13.0 | 0.00 | 0.00 | 0.00 | 72 | 1020.5 |
| 20260507044052 | 57 | 30 | 7.8 | 15.6 | 0.00 | 0.00 | 0.00 | 72 | 1020.5 |
| 20260507043549 | 57 | 35 | 7.8 | 15.6 | 0.00 | 0.00 | 0.00 | 72 | 1020.5 |
| 20260507043057 | 57 | 19 | 5.2 | 11.3 | 0.00 | 0.00 | 0.00 | 72 | 1020.5 |
| 20260507042550 | 57 | 9 | 5.2 | 12.2 | 0.00 | 0.00 | 0.00 | 72 | 1020.4 |
| 20260507042049 | 57 | 43 | 4.3 | 12.2 | 0.00 | 0.00 | 0.00 | 72 | 1020.4 |
| 20260507041553 | 57 | 360 | 7.8 | 12.2 | 0.00 | 0.00 | 0.00 | 72 | 1020.4 |
| 20260507041048 | 58 | 26 | 4.3 | 9.6 | 0.00 | 0.00 | 0.00 | 73 | 1020.3 |
| 20260507040549 | 58 | 28 | 5.2 | 9.6 | 0.00 | 0.00 | 0.00 | 73 | 1020.3 |
| 20260507040058 | 58 | 25 | 5.2 | 9.6 | 0.00 | 0.00 | 0.00 | 72 | 1020.2 |
| 20260507035553 | 58 | 16 | 5.2 | 9.6 | 0.00 | 0.00 | 0.00 | 72 | 1020.1 |
| 20260507035049 | 58 | 5 | 4.3 | 7.8 | 0.00 | 0.00 | 0.00 | 72 | 1020.1 |
| 20260507034558 | 58 | 18 | 2.6 | 9.6 | 0.00 | 0.00 | 0.00 | 72 | 1020.0 |
| 20260507034048 | 58 | 21 | 3.5 | 9.6 | 0.00 | 0.00 | 0.00 | 72 | 1020.0 |
| 20260507033549 | 58 | 43 | 5.2 | 9.6 | 0.00 | 0.00 | 0.00 | 72 | 1019.8 |
| 20260507033053 | 59 | 18 | 4.3 | 7.0 | 0.00 | 0.00 | 0.00 | 72 | 1019.8 |
| 20260507032550 | 59 | 32 | 0.0 | 7.8 | 0.00 | 0.00 | 0.00 | 72 | 1019.8 |
| 20260507032048 | 59 | 9 | 2.6 | 7.8 | 0.00 | 0.00 | 0.00 | 72 | 1019.6 |
| 20260507031554 | 59 | 19 | 2.6 | 5.2 | 0.00 | 0.00 | 0.00 | 72 | 1019.6 |
| 20260507031052 | 60 | 5 | 3.5 | 7.0 | 0.00 | 0.00 | 0.00 | 72 | 1019.6 |
| 20260507030550 | 60 | 352 | 1.7 | 7.8 | 0.00 | 0.00 | 0.00 | 72 | 1019.5 |
| 20260507030056 | 60 | 18 | 2.6 | 8.7 | 0.00 | 0.00 | 0.00 | 71 | 1019.4 |
| 20260507025553 | 60 | 40 | 3.5 | 8.7 | 0.00 | 0.00 | 0.00 | 71 | 1019.4 |
| 20260507025049 | 61 | 38 | 4.3 | 7.8 | 0.00 | 0.00 | 0.00 | 71 | 1019.3 |
| 20260507024552 | 61 | 61 | 3.5 | 7.8 | 0.00 | 0.00 | 0.00 | 71 | 1019.3 |
| 20260507024100 | 61 | 42 | 3.5 | 8.7 | 0.00 | 0.00 | 0.00 | 70 | 1019.2 |
| 20260507023555 | 61 | 16 | 2.6 | 10.4 | 0.00 | 0.00 | 0.00 | 70 | 1019.2 |
| 20260507023053 | 61 | 15 | 5.2 | 10.4 | 0.00 | 0.00 | 0.00 | 70 | 1019.3 |
| 20260507022549 | 61 | 40 | 6.1 | 10.4 | 0.00 | 0.00 | 0.00 | 70 | 1019.2 |
| 20260507022051 | 62 | 12 | 6.1 | 10.4 | 0.00 | 0.00 | 0.00 | 70 | 1019.3 |
| 20260507021605 | 62 | 13 | 6.1 | 12.2 | 0.00 | 0.00 | 0.00 | 70 | 1019.2 |
| 20260507021052 | 62 | 352 | 6.1 | 12.2 | 0.00 | 0.00 | 0.00 | 70 | 1019.3 |
| 20260507020551 | 63 | 360 | 3.5 | 9.6 | 0.00 | 0.00 | 0.00 | 70 | 1019.4 |
| 20260507020052 | 63 | 360 | 2.6 | 9.6 | 0.00 | 0.00 | 0.00 | 70 | 1019.2 |
| 20260507015549 | 64 | 360 | 5.2 | 9.6 | 0.00 | 0.00 | 0.00 | 68 | 1019.4 |
| 20260507015048 | 66 | 16 | 1.7 | 7.0 | 0.00 | 0.00 | 0.00 | 66 | 1019.2 |
| 20260507014557 | 67 | 0 | 0.0 | 0.0 | 0.00 | 0.00 | 0.00 | 65 | 1019.1 |
| 20260507014052 | 67 | 0 | 0.0 | 0.0 | 0.00 | 0.00 | 0.00 | 64 | 1019.1 |
| 20260507013548 | 67 | 0 | 0.0 | 0.0 | 0.00 | 0.00 | 0.00 | 63 | 1019.0 |
| 20260507013054 | 67 | 0 | 0.0 | 0.0 | 0.00 | 0.00 | 0.00 | 64 | 1019.0 |
| 20260507012552 | 67 | 0 | 0.0 | 0.0 | 0.00 | 0.00 | 0.00 | 63 | 1018.9 |
| 20260507012051 | 67 | 0 | 0.0 | 2.6 | 0.00 | 0.00 | 0.00 | 64 | 1019.0 |
| 20260507011558 | 67 | 0 | 0.0 | 2.6 | 0.00 | 0.00 | 0.00 | 64 | 1019.1 |
| 20260507011052 | 67 | 0 | 0.0 | 3.5 | 0.00 | 0.00 | 0.00 | 64 | 1019.2 |
| 20260507010548 | 67 | 0 | 0.0 | 3.5 | 0.00 | 0.00 | 0.00 | 65 | 1019.2 |
| 20260507010055 | 68 | 252 | 0.0 | 3.5 | 0.00 | 0.00 | 0.00 | 63 | 1019.2 |
| 20260507005551 | 68 | 0 | 0.0 | 0.9 | 0.00 | 0.00 | 0.00 | 63 | 1019.2 |
| 20260507005048 | 68 | 0 | 0.0 | 0.9 | 0.00 | 0.00 | 0.00 | 62 | 1019.2 |
| 20260507004557 | 68 | 0 | 0.0 | 0.9 | 0.00 | 0.00 | 0.00 | 64 | 1019.1 |
| 20260507004050 | 68 | 0 | 0.0 | 0.9 | 0.00 | 0.00 | 0.00 | 63 | 1019.2 |
| 20260507003549 | 69 | 0 | 0.0 | 3.5 | 0.00 | 0.00 | 0.00 | 62 | 1019.2 |
| 20260507003053 | 68 | 0 | 0.0 | 5.2 | 0.00 | 0.00 | 0.00 | 61 | 1019.3 |
| 20260507002548 | 68 | 0 | 0.9 | 5.2 | 0.00 | 0.00 | 0.00 | 62 | 1019.3 |
| 20260507002049 | 68 | 0 | 0.9 | 5.2 | 0.00 | 0.00 | 0.00 | 63 | 1019.3 |
| 20260507001553 | 68 | 311 | 0.0 | 6.1 | 0.00 | 0.00 | 0.00 | 63 | 1019.4 |
| 20260507001048 | 68 | 0 | 0.0 | 6.1 | 0.00 | 0.00 | 0.00 | 61 | 1019.4 |
| 20260507000549 | 68 | 0 | 0.0 | 4.3 | 0.00 | 0.00 | 0.00 | 64 | 1019.3 |
| 20260507000057 | 68 | 240 | 0.0 | 4.3 | 0.00 | 0.00 | 0.00 | 64 | 1019.3 |
| 20260506235547 | 67 | 0 | 0.0 | 6.1 | 0.00 | 0.00 | 0.00 | 65 | 1019.2 |
| 20260506235048 | 67 | 0 | 0.9 | 6.1 | 0.00 | 0.00 | 0.00 | 64 | 1019.2 |
| 20260506234624 | 67 | 209 | 1.7 | 5.2 | 0.00 | 0.00 | 0.00 | 66 | 1019.2 |
| 20260506234053 | 67 | 0 | 0.0 | 4.3 | 0.00 | 0.00 | 0.00 | 65 | 1019.3 |
| 20260506233549 | 67 | 30 | 0.0 | 4.3 | 0.00 | 0.00 | 0.00 | 67 | 1019.4 |
| 20260506233056 | 66 | 0 | 0.0 | 4.3 | 0.00 | 0.00 | 0.00 | 66 | 1019.4 |
| 20260506232554 | 66 | 0 | 0.9 | 4.3 | 0.00 | 0.00 | 0.00 | 65 | 1019.4 |
| 20260506232048 | 66 | 0 | 0.0 | 4.3 | 0.00 | 0.00 | 0.00 | 66 | 1019.4 |
| 20260506231555 | 65 | 0 | 0.0 | 7.8 | 0.00 | 0.00 | 0.00 | 67 | 1019.5 |
| 20260506231052 | 65 | 0 | 1.7 | 7.8 | 0.00 | 0.00 | 0.00 | 67 | 1019.5 |
| 20260506230555 | 65 | 0 | 0.0 | 5.2 | 0.00 | 0.00 | 0.00 | 66 | 1019.6 |
| 20260506230058 | 65 | 0 | 0.0 | 5.2 | 0.00 | 0.00 | 0.00 | 69 | 1019.7 |
| 20260506225550 | 64 | 342 | 0.9 | 7.0 | 0.00 | 0.00 | 0.00 | 69 | 1019.7 |
| 20260506225051 | 64 | 0 | 3.5 | 7.0 | 0.00 | 0.00 | 0.00 | 68 | 1019.8 |
| 20260506224553 | 64 | 0 | 0.9 | 4.3 | 0.00 | 0.00 | 0.00 | 69 | 1019.8 |
| 20260506224050 | 64 | 0 | 0.0 | 3.5 | 0.00 | 0.00 | 0.00 | 70 | 1019.8 |
| 20260506223555 | 64 | 0 | 0.0 | 6.1 | 0.00 | 0.00 | 0.00 | 69 | 1019.9 |
| 20260506223100 | 64 | 0 | 0.0 | 6.1 | 0.00 | 0.00 | 0.00 | 69 | 1020.0 |
| 20260506222550 | 65 | 234 | 0.9 | 6.1 | 0.00 | 0.00 | 0.00 | 67 | 1020.0 |
| 20260506222052 | 65 | 0 | 0.0 | 6.1 | 0.00 | 0.00 | 0.00 | 69 | 1020.1 |
| 20260506221555 | 65 | 0 | 0.0 | 6.1 | 0.00 | 0.00 | 0.00 | 69 | 1020.1 |
| 20260506221052 | 65 | 0 | 0.9 | 5.2 | 0.00 | 0.00 | 0.00 | 69 | 1020.0 |
| 20260506220551 | 64 | 0 | 0.0 | 5.2 | 0.00 | 0.00 | 0.00 | 69 | 1019.9 |
| 20260506220056 | 64 | 0 | 0.0 | 5.2 | 0.00 | 0.00 | 0.00 | 70 | 1019.9 |
| 20260506215550 | 64 | 0 | 0.0 | 4.3 | 0.00 | 0.00 | 0.00 | 70 | 1020.0 |
| 20260506215051 | 64 | 0 | 0.0 | 3.5 | 0.00 | 0.00 | 0.00 | 70 | 1020.1 |
| 20260506214557 | 63 | 0 | 0.0 | 0.0 | 0.00 | 0.00 | 0.00 | 71 | 1020.2 |
| 20260506214051 | 63 | 0 | 0.0 | 3.5 | 0.00 | 0.00 | 0.00 | 71 | 1020.2 |
| 20260506213552 | 62 | 0 | 0.0 | 3.5 | 0.00 | 0.00 | 0.00 | 71 | 1020.3 |
| 20260506213052 | 61 | 0 | 0.9 | 5.2 | 0.00 | 0.00 | 0.00 | 71 | 1020.4 |
| 20260506212550 | 61 | 0 | 0.0 | 7.8 | 0.00 | 0.00 | 0.00 | 72 | 1020.5 |
| 20260506212051 | 61 | 234 | 2.6 | 11.3 | 0.00 | 0.00 | 0.00 | 71 | 1020.4 |
| 20260506211558 | 61 | 186 | 0.9 | 11.3 | 0.00 | 0.00 | 0.00 | 72 | 1020.4 |
| 20260506211050 | 61 | 277 | 4.3 | 11.3 | 0.00 | 0.00 | 0.00 | 71 | 1020.4 |
| 20260506210548 | 62 | 0 | 0.0 | 5.2 | 0.00 | 0.00 | 0.00 | 72 | 1020.4 |
| 20260506210056 | 61 | 0 | 0.0 | 7.0 | 0.00 | 0.00 | 0.00 | 72 | 1020.4 |
| 20260506205551 | 61 | 0 | 1.7 | 7.0 | 0.00 | 0.00 | 0.00 | 72 | 1020.3 |
| 20260506205051 | 61 | 0 | 0.0 | 7.0 | 0.00 | 0.00 | 0.00 | 72 | 1020.2 |
| 20260506204600 | 60 | 178 | 1.7 | 7.0 | 0.00 | 0.00 | 0.00 | 72 | 1020.3 |
| 20260506204052 | 60 | 187 | 3.5 | 6.1 | 0.00 | 0.00 | 0.00 | 72 | 1020.3 |
| 20260506203550 | 60 | 194 | 1.7 | 6.1 | 0.00 | 0.00 | 0.00 | 72 | 1020.5 |
| 20260506203056 | 61 | 0 | 0.0 | 0.0 | 0.00 | 0.00 | 0.00 | 72 | 1020.6 |
| 20260506202554 | 60 | 0 | 0.0 | 0.0 | 0.00 | 0.00 | 0.00 | 72 | 1020.6 |
| 20260506202049 | 60 | 0 | 0.0 | 0.0 | 0.00 | 0.00 | 0.00 | 72 | 1020.6 |
| 20260506201556 | 60 | 0 | 0.0 | 0.0 | 0.00 | 0.00 | 0.00 | 72 | 1020.7 |
| 20260506201048 | 59 | 0 | 0.0 | 0.0 | 0.00 | 0.00 | 0.00 | 72 | 1020.7 |
| 20260506200549 | 59 | 0 | 0.0 | 1.7 | 0.00 | 0.00 | 0.00 | 72 | 1020.8 |
| 20260506200107 | 59 | 0 | 0.0 | 3.5 | 0.00 | 0.00 | 0.00 | 71 | 1020.7 |
| 20260506195549 | 59 | 0 | 0.0 | 3.5 | 0.00 | 0.00 | 0.00 | 71 | 1020.7 |
| 20260506195051 | 59 | 0 | 0.0 | 5.2 | 0.00 | 0.00 | 0.00 | 71 | 1020.7 |
| 20260506194606 | 58 | 194 | 0.9 | 5.2 | 0.00 | 0.00 | 0.00 | 71 | 1020.7 |
| 20260506194047 | 58 | 195 | 1.7 | 5.2 | 0.00 | 0.00 | 0.00 | 71 | 1020.7 |
| 20260506193547 | 59 | 211 | 0.0 | 5.2 | 0.00 | 0.00 | 0.00 | 71 | 1020.6 |
| 20260506193055 | 59 | 0 | 1.7 | 5.2 | 0.00 | 0.00 | 0.00 | 71 | 1020.6 |
| 20260506192547 | 59 | 0 | 0.9 | 4.3 | 0.00 | 0.00 | 0.00 | 71 | 1020.6 |
| 20260506192051 | 59 | 202 | 0.0 | 5.2 | 0.00 | 0.00 | 0.00 | 71 | 1020.6 |
| 20260506191553 | 59 | 0 | 0.0 | 8.7 | 0.00 | 0.00 | 0.00 | 70 | 1020.5 |
| 20260506191048 | 58 | 202 | 2.6 | 8.7 | 0.00 | 0.00 | 0.00 | 71 | 1020.5 |
| 20260506190550 | 57 | 207 | 3.5 | 7.8 | 0.00 | 0.00 | 0.00 | 71 | 1020.5 |
| 20260506190100 | 57 | 196 | 4.3 | 7.8 | 0.00 | 0.00 | 0.00 | 71 | 1020.6 |
| 20260506185548 | 57 | 0 | 3.5 | 6.1 | 0.00 | 0.00 | 0.00 | 71 | 1020.7 |
| 20260506185052 | 57 | 213 | 0.0 | 6.1 | 0.00 | 0.00 | 0.00 | 71 | 1020.6 |
| 20260506184559 | 57 | 234 | 2.6 | 6.1 | 0.00 | 0.00 | 0.00 | 71 | 1020.7 |
| 20260506184050 | 57 | 0 | 0.0 | 6.1 | 0.00 | 0.00 | 0.00 | 71 | 1020.6 |
| 20260506183551 | 57 | 219 | 1.7 | 7.0 | 0.00 | 0.00 | 0.00 | 71 | 1020.6 |
| 20260506183105 | 57 | 220 | 2.6 | 7.0 | 0.00 | 0.00 | 0.00 | 71 | 1020.6 |
| 20260506182548 | 57 | 257 | 1.7 | 6.1 | 0.00 | 0.00 | 0.00 | 71 | 1020.6 |
| 20260506182047 | 57 | 299 | 0.9 | 6.1 | 0.00 | 0.00 | 0.00 | 71 | 1020.7 |
| 20260506181559 | 57 | 265 | 0.9 | 6.1 | 0.00 | 0.00 | 0.00 | 71 | 1020.6 |
| 20260506181047 | 57 | 0 | 1.7 | 7.0 | 0.00 | 0.00 | 0.00 | 71 | 1020.7 |
| 20260506180552 | 57 | 184 | 0.9 | 7.0 | 0.00 | 0.00 | 0.00 | 71 | 1020.7 |
| 20260506180057 | 57 | 0 | 1.7 | 5.2 | 0.00 | 0.00 | 0.00 | 71 | 1020.7 |
| 20260506175548 | 57 | 204 | 1.7 | 5.2 | 0.00 | 0.00 | 0.00 | 72 | 1020.5 |
| 20260506175047 | 57 | 0 | 0.9 | 4.3 | 0.00 | 0.00 | 0.00 | 71 | 1020.5 |
| 20260506174549 | 57 | 0 | 0.0 | 3.5 | 0.00 | 0.00 | 0.00 | 71 | 1020.5 |
| 20260506174048 | 56 | 0 | 0.0 | 6.1 | 0.00 | 0.00 | 0.00 | 71 | 1020.5 |
| 20260506173551 | 56 | 0 | 0.9 | 6.1 | 0.00 | 0.00 | 0.00 | 71 | 1020.6 |
| 20260506173108 | 56 | 261 | 0.0 | 7.0 | 0.00 | 0.00 | 0.00 | 70 | 1020.7 |
| 20260506172548 | 56 | 0 | 0.0 | 7.0 | 0.00 | 0.00 | 0.00 | 70 | 1020.5 |
| 20260506172049 | 56 | 0 | 1.7 | 7.0 | 0.00 | 0.00 | 0.00 | 70 | 1020.6 |
| 20260506171602 | 56 | 0 | 2.6 | 5.2 | 0.00 | 0.00 | 0.00 | 70 | 1020.5 |
| 20260506171048 | 55 | 0 | 0.9 | 5.2 | 0.00 | 0.00 | 0.00 | 70 | 1020.4 |
| 20260506170549 | 56 | 202 | 1.7 | 5.2 | 0.00 | 0.00 | 0.00 | 69 | 1020.4 |
| 20260506170056 | 55 | 0 | 0.0 | 4.3 | 0.00 | 0.00 | 0.00 | 68 | 1020.4 |
| 20260506165549 | 55 | 0 | 0.0 | 7.0 | 0.00 | 0.00 | 0.00 | 67 | 1020.5 |
| 20260506165049 | 55 | 219 | 3.5 | 7.0 | 0.00 | 0.00 | 0.00 | 68 | 1020.5 |
| 20260506164558 | 55 | 290 | 0.9 | 3.5 | 0.00 | 0.00 | 0.00 | 68 | 1020.5 |
| 20260506164048 | 55 | 278 | 0.0 | 5.2 | 0.00 | 0.00 | 0.00 | 68 | 1020.3 |
| 20260506163550 | 55 | 278 | 0.9 | 5.2 | 0.00 | 0.00 | 0.00 | 68 | 1020.4 |
| 20260506163107 | 55 | 206 | 2.6 | 5.2 | 0.00 | 0.00 | 0.00 | 68 | 1020.2 |
| 20260506162549 | 55 | 214 | 2.6 | 8.7 | 0.00 | 0.00 | 0.00 | 68 | 1020.2 |
| 20260506162050 | 55 | 0 | 0.9 | 8.7 | 0.00 | 0.00 | 0.00 | 68 | 1020.2 |
| 20260506161605 | 55 | 199 | 3.5 | 8.7 | 0.00 | 0.00 | 0.00 | 69 | 1020.1 |
| 20260506161047 | 55 | 200 | 4.3 | 8.7 | 0.00 | 0.00 | 0.00 | 68 | 1019.9 |
| 20260506160551 | 55 | 202 | 3.5 | 7.0 | 0.00 | 0.00 | 0.00 | 68 | 1019.6 |
| 20260506155552 | 54 | 199 | 1.7 | 5.2 | 0.00 | 0.00 | 0.00 | 64 | 1019.9 |
| 20260506155050 | 54 | 196 | 0.9 | 5.2 | 0.00 | 0.00 | 0.00 | 65 | 1020.3 |
| 20260506154601 | 54 | 0 | 0.0 | 7.0 | 0.00 | 0.00 | 0.00 | 64 | 1020.3 |
| 20260506154049 | 54 | 0 | 0.0 | 7.0 | 0.00 | 0.00 | 0.00 | 63 | 1020.3 |
| 20260506153550 | 54 | 0 | 1.7 | 6.1 | 0.00 | 0.00 | 0.00 | 64 | 1020.3 |
| 20260506153100 | 54 | 220 | 0.9 | 7.0 | 0.00 | 0.00 | 0.00 | 63 | 1020.4 |
| 20260506152549 | 54 | 0 | 0.0 | 7.0 | 0.00 | 0.00 | 0.00 | 62 | 1020.4 |
| 20260506152050 | 54 | 219 | 0.0 | 7.0 | 0.00 | 0.00 | 0.00 | 62 | 1020.5 |
| 20260506151608 | 54 | 0 | 2.6 | 7.0 | 0.00 | 0.00 | 0.00 | 63 | 1020.4 |
| 20260506151050 | 54 | 257 | 0.9 | 6.1 | 0.00 | 0.00 | 0.00 | 63 | 1020.4 |
| 20260506150550 | 54 | 233 | 1.7 | 7.8 | 0.00 | 0.00 | 0.00 | 64 | 1020.3 |
| 20260506150056 | 54 | 311 | 3.5 | 7.8 | 0.00 | 0.00 | 0.00 | 65 | 1020.4 |
| 20260506145548 | 54 | 0 | 0.0 | 5.2 | 0.00 | 0.00 | 0.00 | 64 | 1020.3 |
| 20260506145047 | 54 | 0 | 0.0 | 5.2 | 0.00 | 0.00 | 0.00 | 64 | 1020.1 |
| 20260506144603 | 54 | 0 | 0.0 | 0.0 | 0.00 | 0.00 | 0.00 | 62 | 1019.8 |
| 20260506144047 | 54 | 0 | 0.0 | 2.6 | 0.00 | 0.00 | 0.00 | 61 | 1019.5 |
| 20260506143549 | 54 | 0 | 0.0 | 3.5 | 0.00 | 0.00 | 0.00 | 60 | 1019.4 |
| 20260506143100 | 54 | 0 | 0.9 | 3.5 | 0.00 | 0.00 | 0.00 | 61 | 1019.4 |
| 20260506142551 | 54 | 0 | 0.0 | 0.0 | 0.00 | 0.00 | 0.00 | 61 | 1019.3 |
| 20260506142049 | 54 | 0 | 0.0 | 2.6 | 0.00 | 0.00 | 0.00 | 60 | 1019.3 |
| 20260506141554 | 54 | 0 | 0.0 | 2.6 | 0.00 | 0.00 | 0.00 | 61 | 1019.4 |
| 20260506141048 | 54 | 0 | 0.9 | 2.6 | 0.00 | 0.00 | 0.00 | 61 | 1019.4 |
| 20260506140652 | 54 | 0 | 0.0 | 0.0 | 0.00 | 0.00 | 0.00 | 60 | 1019.3 |
| 20260506140550 | 54 | 0 | 0.0 | 0.0 | 0.00 | 0.00 | 0.00 | 60 | 1019.3 |
| 20260506135548 | 54 | 0 | 0.0 | 3.5 | 0.00 | 0.00 | 0.00 | 60 | 1019.4 |